| time (UTC) | temp F | wind direction | speed MPH | gust MPH | rain 1hr in | rain 24hr in | rain mn in | humidity % | barometer mb |
| 20260510211557 | 63 | 0 | 0.0 | 2.0 | 0.00 | 0.17 | 0.00 | 85 | 1012.8 |
| 20260510210059 | 63 | 0 | 0.0 | 1.0 | 0.00 | 0.17 | 0.00 | 83 | 1012.7 |
| 20260510204607 | 63 | 0 | 0.0 | 5.0 | 0.00 | 0.24 | 0.00 | 81 | 1012.8 |
| 20260510203055 | 66 | 217 | 2.0 | 9.0 | 0.00 | 0.24 | 0.00 | 73 | 1012.8 |
| 20260510201605 | 68 | 277 | 0.0 | 3.0 | 0.00 | 0.24 | 0.00 | 77 | 1012.2 |
| 20260510200056 | 68 | 0 | 0.0 | 2.0 | 0.00 | 0.24 | 0.00 | 77 | 1012.1 |
| 20260510194556 | 68 | 187 | 0.0 | 3.0 | 0.00 | 0.51 | 0.00 | 76 | 1012.2 |
| 20260510193104 | 69 | 205 | 1.0 | 3.0 | 0.00 | 0.51 | 0.00 | 73 | 1012.3 |
| 20260510191601 | 70 | 186 | 0.0 | 3.0 | 0.00 | 0.51 | 0.00 | 72 | 1012.2 |
| 20260510184556 | 70 | 0 | 1.0 | 3.0 | 0.00 | 0.58 | 0.00 | 72 | 1012.2 |
| 20260510183057 | 71 | 119 | 1.0 | 7.0 | 0.00 | 0.58 | 0.00 | 70 | 1012.3 |
| 20260510181557 | 71 | 294 | 0.0 | 5.0 | 0.00 | 0.58 | 0.00 | 68 | 1012.2 |
| 20260510180055 | 71 | 194 | 1.0 | 3.0 | 0.00 | 0.58 | 0.00 | 69 | 1012.4 |
| 20260510174558 | 72 | 211 | 1.0 | 5.0 | 0.00 | 0.58 | 0.00 | 68 | 1012.3 |
| 20260510173112 | 71 | 92 | 0.0 | 4.0 | 0.00 | 0.58 | 0.00 | 69 | 1012.2 |
| 20260510171556 | 70 | 61 | 1.0 | 6.0 | 0.00 | 0.58 | 0.00 | 74 | 1012.3 |
| 20260510170056 | 69 | 70 | 1.0 | 4.0 | 0.00 | 0.58 | 0.00 | 74 | 1012.4 |
| 20260510164611 | 68 | 144 | 2.0 | 4.0 | 0.00 | 0.58 | 0.00 | 75 | 1012.6 |
| 20260510163102 | 68 | 0 | 1.0 | 7.0 | 0.00 | 0.58 | 0.00 | 76 | 1012.7 |
| 20260510161557 | 68 | 128 | 2.0 | 7.0 | 0.00 | 0.58 | 0.00 | 77 | 1012.9 |
| 20260510160058 | 68 | 123 | 1.0 | 6.0 | 0.00 | 0.58 | 0.00 | 77 | 1012.9 |
| 20260510154557 | 66 | 223 | 1.0 | 5.0 | 0.00 | 0.58 | 0.00 | 79 | 1013.1 |
| 20260510153059 | 66 | 243 | 1.0 | 7.0 | 0.00 | 0.58 | 0.00 | 80 | 1013.4 |
| 20260510151605 | 63 | 228 | 0.0 | 4.0 | 0.00 | 0.58 | 0.00 | 84 | 1013.5 |
| 20260510144558 | 61 | 134 | 1.0 | 4.0 | 0.00 | 0.58 | 0.00 | 86 | 1013.3 |
| 20260510143059 | 59 | 311 | 0.0 | 3.0 | 0.00 | 0.58 | 0.00 | 91 | 1013.3 |
| 20260510141556 | 57 | 278 | 2.0 | 4.0 | 0.00 | 0.58 | 0.00 | 93 | 1013.4 |
| 20260510140056 | 56 | 62 | 0.0 | 2.0 | 0.00 | 0.58 | 0.00 | 96 | 1013.3 |
| 20260510134557 | 55 | 0 | 0.0 | 2.0 | 0.00 | 0.58 | 0.00 | 98 | 1013.1 |
| 20260510133055 | 55 | 0 | 0.0 | 2.0 | 0.00 | 0.58 | 0.00 | 98 | 1013.2 |
| 20260510131554 | 55 | 0 | 0.0 | 1.0 | 0.00 | 0.58 | 0.00 | 99 | 1013.3 |
| 20260510130056 | 54 | 101 | 0.0 | 2.0 | 0.00 | 0.58 | 0.00 | 99 | 1013.3 |
| 20260510124557 | 54 | 84 | 0.0 | 2.0 | 0.00 | 0.58 | 0.00 | 99 | 1013.3 |
| 20260510123058 | 53 | 84 | 0.0 | 2.0 | 0.00 | 0.58 | 0.00 | 99 | 1013.2 |
| 20260510121557 | 53 | 0 | 0.0 | 2.0 | 0.00 | 0.58 | 0.00 | 99 | 1013.0 |
| 20260510120055 | 53 | 84 | 1.0 | 3.0 | 0.00 | 0.58 | 0.00 | 99 | 1013.0 |
| 20260510114604 | 52 | 131 | 0.0 | 1.0 | 0.00 | 0.58 | 0.00 | 99 | 1012.8 |
| 20260510113057 | 52 | 0 | 0.0 | 2.0 | 0.00 | 0.58 | 0.00 | 99 | 1012.4 |
| 20260510111557 | 52 | 0 | 0.0 | 0.0 | 0.00 | 0.58 | 0.00 | 99 | 1012.5 |
| 20260510110056 | 51 | 0 | 0.0 | 1.0 | 0.00 | 0.58 | 0.00 | 99 | 1012.4 |
| 20260510104610 | 51 | 0 | 0.0 | 2.0 | 0.00 | 0.58 | 0.00 | 99 | 1012.3 |
| 20260510103100 | 51 | 0 | 0.0 | 0.0 | 0.00 | 0.58 | 0.00 | 99 | 1012.1 |
| 20260510101557 | 51 | 0 | 0.0 | 1.0 | 0.00 | 0.58 | 0.00 | 99 | 1011.9 |
| 20260510100059 | 51 | 0 | 0.0 | 1.0 | 0.00 | 0.58 | 0.00 | 99 | 1012.4 |
| 20260510094600 | 51 | 0 | 0.0 | 1.0 | 0.00 | 0.58 | 0.00 | 98 | 1012.5 |
| 20260510093058 | 51 | 0 | 0.0 | 0.0 | 0.00 | 0.58 | 0.00 | 99 | 1012.3 |
| 20260510091557 | 51 | 0 | 0.0 | 1.0 | 0.00 | 0.58 | 0.00 | 98 | 1012.4 |
| 20260510090104 | 52 | 0 | 0.0 | 0.0 | 0.00 | 0.58 | 0.00 | 99 | 1012.7 |
| 20260510084600 | 52 | 0 | 1.0 | 2.0 | 0.00 | 0.60 | 0.00 | 99 | 1012.7 |
| 20260510083102 | 52 | 0 | 0.0 | 1.0 | 0.00 | 0.60 | 0.00 | 99 | 1012.4 |
| 20260510081559 | 52 | 131 | 0.0 | 0.0 | 0.00 | 0.60 | 0.00 | 99 | 1012.4 |
| 20260510080059 | 52 | 0 | 0.0 | 2.0 | 0.00 | 0.60 | 0.00 | 99 | 1012.1 |
| 20260510074617 | 52 | 0 | 0.0 | 0.0 | 0.00 | 0.60 | 0.00 | 99 | 1012.0 |
| 20260510073056 | 52 | 0 | 0.0 | 0.0 | 0.00 | 0.60 | 0.00 | 99 | 1011.9 |
| 20260510071601 | 52 | 0 | 0.0 | 0.0 | 0.00 | 0.60 | 0.00 | 99 | 1011.9 |
| 20260510070054 | 52 | 0 | 0.0 | 1.0 | 0.00 | 0.60 | 0.00 | 98 | 1011.8 |
| 20260510064611 | 52 | 0 | 0.0 | 1.0 | 0.00 | 0.60 | 0.00 | 99 | 1012.0 |
| 20260510063102 | 52 | 0 | 0.0 | 1.0 | 0.00 | 0.60 | 0.00 | 99 | 1011.7 |
| 20260510061555 | 52 | 0 | 0.0 | 1.0 | 0.00 | 0.60 | 0.00 | 99 | 1011.4 |
| 20260510060058 | 52 | 0 | 0.0 | 1.0 | 0.00 | 0.60 | 0.00 | 99 | 1011.4 |
| 20260510054555 | 52 | 0 | 0.0 | 1.0 | 0.00 | 0.60 | 0.00 | 99 | 1011.6 |
| 20260510053055 | 53 | 0 | 0.0 | 0.0 | 0.00 | 0.60 | 0.00 | 98 | 1011.6 |
| 20260510051603 | 53 | 0 | 0.0 | 0.0 | 0.00 | 0.60 | 0.00 | 98 | 1011.7 |
| 20260510050054 | 53 | 0 | 0.0 | 0.0 | 0.00 | 0.60 | 0.00 | 98 | 1011.6 |
| 20260510044557 | 53 | 0 | 0.0 | 0.0 | 0.00 | 0.60 | 0.00 | 98 | 1011.8 |
| 20260510043102 | 53 | 0 | 0.0 | 0.0 | 0.00 | 0.60 | 0.00 | 98 | 1011.7 |
| 20260510041611 | 53 | 0 | 0.0 | 0.0 | 0.00 | 0.60 | 0.00 | 98 | 1011.7 |
| 20260510040101 | 53 | 0 | 0.0 | 0.0 | 0.00 | 0.60 | 0.00 | 98 | 1011.5 |
| 20260510034557 | 53 | 0 | 0.0 | 1.0 | 0.00 | 0.60 | 0.60 | 98 | 1011.6 |
| 20260510033056 | 53 | 0 | 0.0 | 0.0 | 0.00 | 0.60 | 0.60 | 98 | 1011.6 |
| 20260510031601 | 53 | 0 | 0.0 | 0.0 | 0.00 | 0.60 | 0.60 | 98 | 1011.8 |
| 20260510030059 | 53 | 0 | 0.0 | 1.0 | 0.00 | 0.60 | 0.60 | 98 | 1011.7 |
| 20260510024602 | 53 | 0 | 0.0 | 1.0 | 0.00 | 0.60 | 0.60 | 98 | 1011.7 |
| 20260510023056 | 53 | 0 | 0.0 | 1.0 | 0.00 | 0.60 | 0.60 | 98 | 1011.6 |
| 20260510021559 | 53 | 0 | 0.0 | 0.0 | 0.00 | 0.60 | 0.60 | 98 | 1011.7 |
| 20260510020058 | 53 | 0 | 0.0 | 2.0 | 0.00 | 0.60 | 0.60 | 98 | 1011.8 |
| 20260510014556 | 53 | 0 | 0.0 | 0.0 | 0.00 | 0.60 | 0.60 | 98 | 1011.8 |
| 20260510013106 | 53 | 0 | 0.0 | 1.0 | 0.00 | 0.60 | 0.60 | 98 | 1011.6 |
| 20260510011559 | 53 | 0 | 0.0 | 1.0 | 0.00 | 0.60 | 0.60 | 98 | 1011.6 |
| 20260510010107 | 53 | 0 | 0.0 | 1.0 | 0.00 | 0.60 | 0.60 | 98 | 1011.4 |
| 20260510004603 | 53 | 0 | 0.0 | 2.0 | 0.00 | 0.60 | 0.60 | 98 | 1011.3 |
| 20260510003056 | 53 | 0 | 0.0 | 1.0 | 0.00 | 0.60 | 0.60 | 98 | 1011.1 |
| 20260510001555 | 53 | 0 | 0.0 | 1.0 | 0.01 | 0.60 | 0.60 | 98 | 1011.0 |
| 20260510000115 | 53 | 0 | 0.0 | 1.0 | 0.03 | 0.60 | 0.60 | 98 | 1011.1 |
| 20260509234604 | 53 | 0 | 0.0 | 1.0 | 0.06 | 0.60 | 0.60 | 98 | 1011.1 |
| 20260509233056 | 53 | 0 | 0.0 | 2.0 | 0.08 | 0.60 | 0.60 | 98 | 1011.0 |
| 20260509231557 | 53 | 0 | 0.0 | 1.0 | 0.09 | 0.58 | 0.58 | 98 | 1011.2 |
| 20260509230055 | 53 | 0 | 0.0 | 2.0 | 0.10 | 0.57 | 0.57 | 98 | 1011.6 |
| 20260509224555 | 53 | 0 | 0.0 | 2.0 | 0.09 | 0.54 | 0.54 | 98 | 1011.6 |
| 20260509223057 | 53 | 0 | 0.0 | 1.0 | 0.08 | 0.52 | 0.52 | 98 | 1011.6 |
| 20260509221609 | 52 | 0 | 0.0 | 2.0 | 0.07 | 0.50 | 0.50 | 97 | 1011.8 |
| 20260509220121 | 52 | 0 | 0.0 | 0.0 | 0.04 | 0.47 | 0.47 | 97 | 1011.9 |
| 20260509214558 | 52 | 0 | 0.0 | 1.0 | 0.04 | 0.45 | 0.45 | 97 | 1011.9 |
| 20260509213057 | 52 | 0 | 0.0 | 2.0 | 0.04 | 0.44 | 0.44 | 97 | 1011.9 |